Regional Weather Roundup
Issued by NWS

Home | Current Version | Previous Version | Text Only | Print | Product List | Glossary On
Versions: 1 2 3 4 5 6 7 8 9 10 11 12 13 14 15 16 17 18 19 20 21 22 23 24 25 26 27 28 29 30 31 32 33 34 35 36 37 38 39 40 41 42 43 44 45 46 47 48 49 50
000
ASUS43 KMPX 221101
RWRMN
WEATHER ROUNDUP FOR MINNESOTA
NATIONAL WEATHER SERVICE TWIN CITIES/CHANHASSEN MN
600 AM CDT TUE JUL 22 2014


NOTE: "FAIR" INDICATES FEW OR NO CLOUDS BELOW 12,000 FEET WITH NO
SIGNIFICANT WEATHER AND/OR OBSTRUCTIONS TO VISIBILITY. N/A MEANS
CURRENT SKY AND/OR WEATHER CONDITIONS ARE NOT AVAILABLE.

MNZ060>063-068>070-221200-
   Twin Cities Metro

CITY           SKY/WX    TMP DP  RH WIND       PRES   REMARKS
TWIN CITIES    PTCLDY    78  70  76 W17G28    29.86R
ST PAUL        MOCLDY    79  72  79 NW18G28   29.85R
CRYSTAL        CLEAR     76  64  66 W10       29.86R
BLAINE         CLEAR     75  66  73 W10       29.86R
LAKEVILLE      MOCLDY    77  75  94 W12       29.86R
EDEN PRAIRIE   CLEAR     77  65  66 NW12G23   29.87R
SOUTH ST PAUL  PTCLDY    81  75  83 W10       29.84R
LAKE ELMO      CLOUDY    79  77  94 W17       29.85R
$$
MNZ001>005-007-008-013>017-022>024-027-028-221200-
   Northwest Minnesota

CITY           SKY/WX    TMP DP  RH WIND       PRES   REMARKS
BEMIDJI        CLOUDY    63  62  96 W15G22    29.90R
HALLOCK        MOCLDY    63  59  88 NW9       29.97R
ROSEAU         CLOUDY    59  54  82 NW9       29.93R
WARROAD        CLOUDY    59  55  88 NW12      29.91R
THIEF RVR FALL MOCLDY    63  59  88 NW14      29.95R
FOSSTON        CLOUDY    61  61 100 NW12G17   29.95R
DETROIT LAKES  RAIN      64  63  94 NW14G21   29.97R
MOORHEAD       CLOUDY    66  66 100 NW16      30.00R
PARK RAPIDS    MOCLDY    64  62  93 NW16      29.91R
$$
MNZ006-009>011-018-025>026-221200-
   North Central Minnesota

CITY           SKY/WX    TMP DP  RH WIND       PRES   REMARKS
BAUDETTE       CLOUDY    64  61  90 NW13      29.87R
FLAG ISLAND    CLOUDY    64  57  77 N20       29.88R
INTL FALLS     RAIN      65  64  97 NW14      29.78R FOG
WASKISH        LGT RAIN  64  64 100 W17G23    29.87R
BIG FORK       CLOUDY    64  63  94 NW5G17    29.80R
LONGVILLE      CLOUDY    66  64  94 W7        29.85R
GRAND RAPIDS   CLOUDY    66  63  88 NW17G23   29.81R
ORR            LGT RAIN  66  63  88 NW10G17   29.71R
COOK           CLOUDY    66  64  94 W13G18    29.72R
$$
MNZ012-019>021-037-221200-
   Northeast Minnesota

CITY           SKY/WX    TMP DP  RH WIND       PRES   REMARKS
DULUTH         MOCLDY    68  63  84 W16G25    29.75R
ELY            HVY RAIN  64  63  94 W5        29.72R
HIBBING        LGT RAIN  67  64  90 W8        29.75S
DULUTH HARBOR  PTCLDY    70  66  88 W20       29.75R
TWO HARBORS    MOCLDY    66  61  82 W9        29.71R
SILVER BAY     CLOUDY    63  63 100 CALM      29.69S
GRAND MARAIS     N/A     59  58  96 CALM      29.71S
G MARAIS ARPRT LGT RAIN  61  57  88 CALM      29.74F
$$
MNZ029>031-032-039>041-046>048-054>057-064-221200-
   West Central Minnesota

CITY           SKY/WX    TMP DP  RH WIND       PRES   REMARKS
FERGUS FALLS   CLOUDY    66  64  94 NW13      29.97R
WHEATON        MOCLDY    64  63  94 NW9       30.01R
MORRIS         CLEAR     66  64  94 NW12      29.98R
ALEXANDRIA     CLOUDY    67  63  87 NW18G25   29.96R
ELBOW LAKE     CLOUDY    65  64  96 NW13G21   29.97R
WADENA         MOCLDY    64  61  88 NW13G18   29.93R
GLENWOOD       PTCLDY    66  63  88 NW13G23   29.96R
APPLETON       MOCLDY    68  64  88 NW8       30.00R
BENSON         CLOUDY    66  64  94 NW13      29.98R
MADISON        PTCLDY    70  66  88 NW12      30.02R
WILLMAR        FAIR      66  63  88 W10       29.97R
$$
MNZ033>034-036-042>043-049>051-058-059-221200-
   Central Minnesota

CITY           SKY/WX    TMP DP  RH WIND       PRES   REMARKS
ST CLOUD       CLEAR     70  63  78 NW14G21   29.87R
SAUK CENTRE    FAIR      66  63  89 NW15      29.93R
PAYNESVILLE    RAIN      64  62  93 SW10G16   29.94R
AITKIN         MOCLDY    70  64  83 W5        29.82R
PINE RIVER     CLOUDY    66  64  94 NW8G16    29.90R
BRAINERD       CLOUDY    67  64  90 NW15G24   29.86R
STAPLES        MOCLDY    64  61  88 NW14G20   29.90R
LONG PRAIRIE   FAIR      64  61  88 W10G18    29.92R
LITTLE FALLS   PTCLDY    66  61  82 W12G20    29.88R
LITCHFIELD     PTCLDY    72  66  83 W14       29.93R
BUFFALO        CLEAR     70  63  77 W9        29.90R
MAPLE LAKE     CLEAR     71  65  81 W6        29.90R
$$
MNZ037-044-045-052-053-221200-
   East Central Minnesota

CITY           SKY/WX    TMP DP  RH WIND       PRES   REMARKS
PRINCETON      CLEAR     70  64  83 W12G18    29.86R
MORA           PTCLDY    64  64 100 W7        29.84R
CAMBRIDGE      CLEAR     73  61  64 W10G16    29.83R
RUSH CITY      CLEAR     70  64  80 W8G17     29.82R
MOOSE LAKE     MOCLDY    68  63  83 W5        29.79R
HINCKLEY       FAIR      68  64  88 W8        29.81R
CLOQUET        CLOUDY    66  63  88 W9G17     29.79R
$$
MNZ071>073-080-081-089-090-097-098-221200-
   Southwest Minnesota

CITY           SKY/WX    TMP DP  RH WIND       PRES   REMARKS
MONTEVIDEO     MOCLDY    66  64  94 N10       29.99R
GRANITE FALLS  MOCLDY    67  64  91 NW14G20   29.98R
CANBY          MOCLDY    67  64  88 NW12G18   30.02R
MARSHALL       MOCLDY    68  63  83 NW9       29.99R
REDWOOD FALLS  MOCLDY    70  66  87 NW15G22   29.96R
OLIVIA         MOCLDY    70  64  83 NW16      29.95R
PIPESTONE      MOCLDY    70  63  78 NW14      30.07R
WINDOM         CLEAR     70  64  83 NW8       29.94R
WORTHINGTON    PTCLDY    70  64  83 NW20G28   30.02R
TRACY          PTCLDY    69  64  84 NW10      30.02R
SLAYTON        PTCLDY    68  63  84 NW13      30.05R
$$
MNZ065>067-074>077-082>085-091>093-221200-
   South Central Minnesota

CITY           SKY/WX    TMP DP  RH WIND       PRES   REMARKS
MANKATO        MOCLDY    75  72  88 NW15G24   29.89R
NEW ULM        PTCLDY    70  66  88 N17G25    29.90R
ST JAMES       CLEAR     72  64  78 NW10G18   29.91R
FAIRMONT       MOCLDY    77  72  83 NW14      29.91R
GLENCOE        PTCLDY    73  62  69 NW12      29.91R
FARIBAULT      PTCLDY    81  72  74 SW6       29.89R
OWATONNA       PTCLDY    77  73  88 SW7       29.89R FOG
WASECA         MOCLDY    77  72  83 W8        29.91R HAZE
ALBERT LEA     CLEAR     77  75  94 SW5       29.89R FOG
$$
MNZ078>079-086>088-094>096-221200-
   Southeast Minnesota

CITY           SKY/WX    TMP DP  RH WIND       PRES   REMARKS
ROCHESTER      CLEAR     76  73  91 SW9       29.89R FOG
RED WING       PTCLDY    81  75  83 SW6       29.82R
STANTON        PTCLDY    78  74  87 SW8       29.85R
DODGE CENTER   MOCLDY    75  73  94 SW9       29.88R FOG
WINONA         CLEAR     77  70  78 SW10      29.85S
AUSTIN         MOCLDY    75  73  94 S7        29.88R FOG
PRESTON        CLEAR     73  73 100 S12       29.89F FOG
$$
ABBREVIATIONS USED IN REMARKS
   TC - TEMPERATURES IN CELSIUS
  WCI - WIND CHILL INDEX
   HX - HEAT INDEX
  VSB - VISIBILITY
$$


USA.gov is the U.S. government's official web portal to all federal, state and local government web resources and services.